Weather History for Cortez, CO

Change the Weather History Date:

Thursday, September 4, 2014

  Actual Average Record
Temperature  
Mean Temperature 58 °F 64 °F  
Max Temperature 68 °F 82 °F 90 °F (2001)
Min Temperature 47 °F 48 °F 37 °F (2008)
Degree Days  
Heating Degree Days 7 2  
Month to date heating degree days 7 7  
Since 1 July heating degree days 17 19  
Cooling Degree Days 0 1  
Month to date cooling degree days 7 7  
Year to date cooling degree days 519 416  
Growing Degree Days 7 (Base 50)    
Moisture  
Dew Point 45 °F    
Average Humidity 70    
Maximum Humidity 100    
Minimum Humidity 40    
Precipitation  
Precipitation 0.06 in 0.05 in 0.74 in (2004)
Month to date precipitation 0.06 0.19  
Year to date precipitation 5.16 8.63  
Sea Level Pressure  
Sea Level Pressure 29.94 in    
Wind  
Wind Speed 6 mph (ENE)    
Max Wind Speed 18 mph    
Max Gust Speed 23 mph    
Visibility 10 miles    
Events Rain    
T = Trace of Precipitation, MM = Missing Value Source: NWS Daily Summary

Daily Weather History Graph

Daily Weather History Graph

Search for Another Location

Airport:

Trip Planner

Search our weather history database for the weather conditions in past years. The results will help you decide how hot, cold, wet, or windy it might be!

Date:

Astronomy

Sep. 04, 2014 Rise Set
Actual Time 6:47 AM MDT 7:38 PM MDT
Civil Twilight 6:21 AM MDT 8:05 PM MDT
Nautical Twilight 5:49 AM MDT 8:36 PM MDT
Astronomical Twilight 5:17 AM MDT 9:08 PM MDT
Moon 4:15 PM MDT (9/4) 1:45 AM MDT (9/4)
Length of Visible Light 13h 44m
Length of Day
12h 51m
Waxing Gibbous, 75% of the Moon is Illuminated
Sep 4
Waxing Gibbous
Sep 8
Full
Sep 15
Last Quarter
Sep 24
New
Oct 1
First Quarter

Hourly Weather History & Observations

Time (MDT) Temp. Dew Point Humidity Pressure Visibility Wind Dir Wind Speed Gust Speed Precip Events Conditions
12:53 AM 53.1 °F 35.1 °F 50% 29.80 in 10.0 mi ENE 3.5 mph - N/A   Clear
1:53 AM 55.0 °F 35.1 °F 47% 29.79 in 10.0 mi East 5.8 mph - N/A   Clear
2:53 AM 48.9 °F 36.0 °F 61% 29.81 in 10.0 mi East 4.6 mph - N/A   Clear
3:53 AM 50.0 °F 35.1 °F 57% 29.81 in 10.0 mi ENE 5.8 mph - N/A   Clear
4:53 AM 50.0 °F 35.1 °F 57% 29.81 in 10.0 mi ENE 6.9 mph - N/A   Clear
5:53 AM 48.0 °F 37.0 °F 66% 29.82 in 10.0 mi ENE 3.5 mph - N/A   Mostly Cloudy
6:53 AM 53.1 °F 37.0 °F 55% 29.84 in 10.0 mi East 4.6 mph - N/A   Overcast
7:53 AM 54.0 °F 39.9 °F 59% 29.91 in 10.0 mi Calm Calm - N/A   Clear
8:53 AM 62.1 °F 39.9 °F 44% 29.91 in 10.0 mi ENE 5.8 mph - N/A   Scattered Clouds
9:53 AM 63.0 °F 42.1 °F 46% 29.95 in 10.0 mi Calm Calm - 0.00 in   Overcast
10:53 AM 66.9 °F 41.0 °F 39% 29.99 in 10.0 mi SW 6.9 mph - N/A   Overcast
11:53 AM 60.1 °F 55.0 °F 83% 30.04 in 7.0 mi NE 11.5 mph - 0.02 in Rain Light Rain
12:53 PM 62.1 °F 54.0 °F 75% 30.02 in 10.0 mi ENE 10.4 mph - 0.01 in Rain Light Rain
1:53 PM 64.9 °F 51.1 °F 61% 29.99 in 10.0 mi East 10.4 mph - 0.00 in   Overcast
2:53 PM 62.1 °F 53.1 °F 72% 30.00 in 10.0 mi East 5.8 mph - 0.02 in Rain Light Rain
3:53 PM 63.0 °F 54.0 °F 72% 30.02 in 10.0 mi NE 8.1 mph - 0.00 in Rain Light Rain
4:53 PM 63.0 °F 50.0 °F 63% 30.01 in 10.0 mi ESE 8.1 mph - 0.01 in Rain Light Rain
5:53 PM 64.9 °F 48.9 °F 56% 30.02 in 10.0 mi Calm Calm - 0.00 in   Overcast
6:53 PM 63.0 °F 53.1 °F 70% 29.98 in 10.0 mi ENE 5.8 mph - N/A   Scattered Clouds
7:53 PM 57.9 °F 52.0 °F 81% 29.97 in 10.0 mi NE 5.8 mph - N/A   Clear
8:53 PM 55.9 °F 51.1 °F 84% 29.96 in 10.0 mi NE 8.1 mph - N/A   Clear
9:53 PM 52.0 °F 50.0 °F 93% 30.00 in 10.0 mi SE 3.5 mph - N/A   Clear
10:53 PM 50.0 °F 48.0 °F 93% 30.01 in 10.0 mi NE 4.6 mph - N/A   Clear
11:53 PM 48.9 °F 48.0 °F 97% 30.05 in 10.0 mi ESE 3.5 mph - N/A   Clear